Location: *
(51.8167°N, 12.5000°E)
Time: 20:57:12
(UTC+00:00)

H-2A R/B - Pass Details

Date: 16 September 2019
Orbit: 734 x 836 km, 98.3° (Epoch: 14 October)

Event Time Altitude Azimuth Distance (km) Brightness Sun altitude
Exits shadow 20:06:40 - 209° (SSW) 2,381 4.4 -23.9°
Reaches altitude 10° 20:07:05 10° 212° (SSW) 2,242 4.3 -24.0°
Maximum altitude 20:11:10 26° 268° (W) 1,450 3.9 -24.5°
Drops below altitude 10° 20:15:21 10° 324° (NW) 2,289 5.5 -25.0°
Sets 20:18:03 0° 337° (NNW) 3,235 6.3 -25.3°
